SL-16 DEB

Satellite information

Favourite Embed

Satellite Type and Status

DEBRISIN ORBIT

Key statistics

Satellite SL-16 DEB at a glance.

Uptime

11822

Days in orbit

Revolutions

≈ 14.0

Per day

Orbit

LEO

Low Earth Orbit

Inclination

70.9

Latest

Satellite identification and parameters

Extended collection of information and parameters for SL-16 DEB.

Object identification

Identified? True

Debris? True

Object name: SL-16 DEB

International designator: 1992-093U

Object number (NORAD): 22331

Object ID (CCSDS): 22331

Country: COMMONWEALTH OF INDEPENDENT STATES (CIS)

Current information (Y/N): Y

RCS size: MEDIUM

Orbital parameters

Period: 102.497 minutes

Inclination: 70.9226 deg

SMA: 7254.968 km

Apoapsis: 932.24 km

Periapsis: 821.426 km

RAAN: 232.6963 deg

Eccentricy: 0.0076371

Argument of periapsis: 173.9064 deg

Mean anomaly: 293.4347 deg

Mean motion: 14.04913148 rev/day

Mean motion (dot): 0.00000185 rev/day2

B* drag term: 0.0001408 1/REarth

Two-line elements (TLE)

Creation date: May 8, 2025, 3:01 a.m.

Reference frame: TEME

Reference center: EARTH

Epoch: May 7, 2025, 4:41 p.m. UTC

TLE line 0: 0 SL-16 DEB

TLE line 1: 1 22331U 92093U 25127.69537437 .00000185 00000-0 14080-3 0 9995

TLE line 2: 2 22331 70.9226 232.6963 0076371 173.9064 293.4347 14.04913148658123

Live tracking on map

Real-time ground track for satellite SL-16 DEB.

In-orbit conjunctions

A list of the most updated potential collisions computed for object SL-16 DEB.

Target Orbit TCA Probability of collision Miss distance Type
FENGYUN 1C DEB SSO 2025-03-24 22:24:29 0.0001833513 104.0 (m) DEBRIS
CZ-6A DEB LEO 2024-11-16 19:31:06 0.0001476545 919.0 (m) DEBRIS
COSMOS 2251 DEB LEO 2024-08-29 22:19:26 0.0002513518 21.0 (m) DEBRIS

Associated space launch

Second generation ELING satellite

SL-16 DEB was lifted into orbit during the mission ‘Zenit-2 | Tselina-2 12’, on board a Zenit-2 space rocket.

The launch took place on Dec. 25, 1992, 5:56 a.m. from 45/1.

For more information about the launch, click the button.

Launch to space Zenit-2 | Tselina-2 12
Zenit-2 | Tselina-2 12

Agency: N/A

Status: Launch Successful

Launch date: Dec. 25, 1992, 5:56 a.m. UTC

Rocket: Zenit-2

Launch pad: 45/1

Location: Baikonur Cosmodrome, Republic of Kazakhstan

...

Latest news about this satellite

There are no fresh news available about this satellite. Check back as we update our databases every day.


Newsletter sign-up

Weekly statistics, charts and insights to help you stay on top of the space industry.